Other Public Products
Issued by NWS Charleston, SC

Home | Current Version | Previous Version | Text Only | Print | Product List | Glossary On
Versions: 1 2 3 4 5 6 7 8 9 10 11 12 13 14 15 16 17 18 19 20 21 22 23 24 25 26 27 28 29 30 31 32 33 34 35 36 37 38 39 40 41 42 43 44 45 46 47 48 49 50
735
FPUS82 KCHS 291127
OPUCHS

TEST...KCHS/KSAV Gateway Observations...TEST
National Weather Service Charleston SC
700 AM EDT THU JUN 29 2017

NOTE: "fair" indicates few or no clouds below 12,000 feet with no
significant weather and/or obstructions to visibility.

SCZ050-WAZ558-NCZ071-TXZ119-213-PAZ071-DCZ001-FLZ074-172-MI076-
NYZ176-178-MAZ016-IL014-TNZ027-NJZ106-GAZ044-MD014-291200-

...Gateway Observations for Charleston International...

CITY           SKY/WX    TMP DP  RH WIND       PRES   REMARKS
Chas Airport   PTCLDY    72  67  84 NE6       30.18R
Seattle        PTCLDY    53  50  89 SW3       30.12R
Charlotte      MOCLDY    65  58  78 SE5       30.22S
Dallas DFW     PTCLDY    76  72  87 S16       29.84R
Dallas Love    PTCLDY    76  70  82 S14       29.86R
Philladelphia  CLOUDY    67  59  75 S10G18    30.17S
Wash National  PTSUNNY   68  61  78 S10       30.17S
Baltimore      PTSUNNY   65  59  81 S6        30.15S
Miami          PTCLDY    80  76  87 CALM      30.05R
Detroit        CLOUDY    69  56  62 S16       29.85F
Newark         PTSUNNY   68  58  70 SW8       30.16R
Laguardia      PTSUNNY   70  58  65 SW13      30.15S
J F K          PTSUNNY   68  62  81 SW7       30.17S
Boston Logan   CLOUDY    67  55  65 SW13      30.11S
Ft. Lauderdale PTCLDY    81  76  84 CALM      30.04R
Chicago O`Hare MOCLDY    71  63  75 SW9       29.75R
Chicago Midway MOCLDY    73  64  73 SW10      29.76R
Houston Bush   PTCLDY    75  73  93 SE3       29.86R
Houston Hobby  PTCLDY    77  74  90 CALM      29.85S
Nashville      PTCLDY    71  63  75 CALM      30.08R
Atlanta        MOCLDY    72  67  84 SE8       30.17S

$$

GAZ044-118-TXZ119-213-NCZ071-DCZ001-MDZ014-506-PAZ021-071-NJZ106-
NYZ176-178-MAZ106-OHZ011-021-055-MIZ076-KYZ091-ILZ014-INZ047-
MNZ060-ONZ431-291200-

...Gateway Observations for Savannah International...

CITY           SKY/WX    TMP DP  RH WIND       PRES   REMARKS
Savannah Arpt  MOCLDY    75  71  87 NE5       30.15R
Atlanta        MOCLDY    72  67  84 SE8       30.17S
Charlotte      MOCLDY    65  58  78 SE5       30.22S
Dallas DFW     PTCLDY    76  72  87 S16       29.84R
Houston Bush   PTCLDY    75  73  93 SE3       29.86R
Wash National  PTSUNNY   68  61  78 S10       30.17S
Wash Dulles    CLOUDY    64  55  72 S8        30.16R
Baltimore      PTSUNNY   65  59  81 S6        30.15S
Philadelphia   CLOUDY    67  59  75 S10G18    30.17S
Newark         PTSUNNY   68  58  70 SW8       30.16R
Laguardia      PTSUNNY   70  58  65 SW13      30.15S
J F K          PTSUNNY   68  62  81 SW7       30.17S
Boston         CLOUDY    67  55  65 SW13      30.11S
Pittsburg      PTSUNNY   61  53  75 S3        30.08R
Akron          PTCLDY    63  53  70 S6        30.04S
Cleveland      MOCLDY    70  54  56 S14       29.98F
Cincinnati     MOCLDY    66  58  75 S9        30.03S
Columbus       CLOUDY    64  57  77 S8        30.03S
Detroit        CLOUDY    69  56  62 S16       29.85F
Chicago O`Hare MOCLDY    71  63  75 SW9       29.75R
Minneapolis    CLOUDY    65  58  78 W8        29.68R
Indianapolis   MOCLDY    69  60  73 S12       29.94S
Toronto Canada LGT RAIN  61  57  88 SE10      29.91F

$$




USA.gov is the U.S. government's official web portal to all federal, state and local government web resources and services.